www.pogodaiklimat.ru

Погода и климат >> Архив погоды >> Бангладеш >> Patuakhali


ПОГОДА в Patuakhali

  • Прогноз погоды в Patuakhali
  • Монитор погоды в Patuakhali
  • Климат города

АРХИВ ПОГОДЫ в Patuakhali

Время (UTC), дата Ветер
(напр.,м/с)
 
Видим.   Явления Облачность Т
(С)
Тd
(С)
f
(%)
Тe
(С)
Тes
(С)
Комфортность P
(гПа)
Po
(гПа)
Тmin
(С)
Tmax
(С)
R
(мм)
R24
(мм)
S
(см)
03 8.08 ЮВ 1 5000 м {дождь} 5/5 540 м
[Sc diur, vesp]
+29.0 +26.0 84 +44 +51 опасность
перегрева
1002.5 1002.3 +26.3 5
06 8.08 Ю 2 6000 м {дождь} 5/5 540 м
[Sc diur, vesp]
+32.4 +25.0 65 +46 +58 опасность
перегрева
1002.2 1002.1
09 8.08 Ю 2 6000 м {дождь} 4/4 540 м
[Sc diur, vesp]
+32.5 +27.0 73 +51 +58 опасность
перегрева
1001.1 1001.0 0.0
12 8.08 Ю 2 5000 м {дождь} 4/3 540 м
[Sc diur, vesp Ci fib]
+29.7 +26.0 81 +45 +45 опасность
перегрева
1001.0 1000.9 +32.7
15 8.08 Ю 1 5000 м ясно +28.5 +27.0 92 +45 +45 опасность
перегрева
1003.7 1003.5
18 8.08 штиль 0 5000 м 3/3 540 м
[Sc diur, vesp]
+28.2 +27.0 93 +44 +44 опасность
перегрева
1004.3 1004.1
21 8.08 штиль 0 5000 м 3/3 750 м
[Cu hum]
+27.5 +27.0 97 +43 +43 опасность
перегрева
1004.1 1003.9
00 9.08 штиль 0 5000 м 4/0
[Ac lent Ci fib]
+27.0 +27.0 100 +42 +42 опасность
перегрева
1003.7 1003.5
03 9.08 ЮВ 1 5000 м в посл. час дождь 6/5 540 м
[Sc diur, vesp As trans]
+29.5 +28.0 92 +49 +56 опасность
перегрева
1004.6 1004.4 +26.6
06 9.08 ЮВ 1 6000 м {дождь} 6/5 540 м
[Sc diur, vesp As trans]
+31.4 +25.0 69 +45 +57 опасность
перегрева
1004.0 1003.9 0.1
09 9.08 Ю 1 5000 м 8/6 540 м
[Sc diur, vesp As trans]
+32.6 +28.0 77 +53 +57 опасность
перегрева
1002.2 1002.1
12 9.08 Ю 1 5000 м 5/5 540 м
[Sc diur, vesp Ci fib]
+30.2 +27.0 83 +47 +48 опасность
перегрева
1002.2 1002.1 +32.8
15 9.08 Ю 1 5000 м 5/5 540 м
[Sc diur, vesp Ci fib]
+30.2 +27.0 83 +47 +47 опасность
перегрева
1002.2 1002.1 +32.8
18 9.08 штиль 0 5000 м ясно +28.2 +27.0 93 +44 +44 опасность
перегрева
1004.2 1004.0
21 9.08 штиль 0 5000 м ясно +27.8 +27.8 100 +45 +45 опасность
перегрева
1003.7 1003.5 +27.0 +27.8
00 10.08 штиль 0 5000 м 1/1 540 м
[Sc diur, vesp Ci fib]
+27.5 +27.5 100 +44 +44 опасность
перегрева
1003.0 1002.8
03 10.08 Ю 1 5000 м 4/4 540 м
[Sc diur, vesp Ac lent]
+30.3 +27.0 83 +48 +57 опасность
перегрева
1004.2 1004.0 +27.0
06 10.08 штиль 0 7000 м 5/5 540 м
[Sc diur, vesp Ac trans]
+33.7 +27.0 68 +52 +66 опасность
перегрева
1003.5 1003.4
09 10.08 штиль 0 4000 м 8/8 500 м
[Cb calv Ac lent]
+30.0 +27.0 84 +47 +50 опасность
перегрева
1001.2 1001.1
12 10.08 Ю 1 4000 м в посл. час гроза {дождь} 5/5 540 м
[Sc diur, vesp Ac trans Ci fib]
+30.2 +27.0 83 +47 +48 опасность
перегрева
1000.5 1000.4 +33.8
15 10.08 Ю 1 4000 м зарница 3/3 750 м
[Cb calv]
+28.8 +27.0 90 +45 +45 опасность
перегрева
1002.0 1001.8
18 10.08 штиль 0 4000 м 4/4 540 м
[Sc diur, vesp]
+28.2 +27.0 93 +44 +44 опасность
перегрева
1002.4 1002.2
21 10.08 штиль 0 4000 м 4/4 540 м
[Sc diur, vesp]
+28.0 +27.0 94 +44 +44 опасность
перегрева
1001.8 1001.6
00 11.08 штиль 0 5000 м 4/3 540 м
[Sc Ci fib]
+27.7 +27.0 96 +44 +44 опасность
перегрева
1000.9 1000.7
03 11.08 Ю 1 5000 м 5/5 540 м
[Sc diur, vesp]
+31.0 +26.0 75 +46 +54 опасность
перегрева
1000.9 1000.8 +27.2
06 11.08 ЮЗ 1 6000 м 6/5 540 м
[Sc diur, vesp As trans]
+33.4 +27.0 69 +51 +63 опасность
перегрева
1000.7 1000.5
09 11.08 Ю 1 6000 м 8/6 540 м
[Sc diur, vesp As trans]
+34.2 +27.0 66 +52 +56 опасность
перегрева
998.2 998.0
12 11.08 ЮВ 1 5000 м 5/5 540 м
[Sc diur, vesp As trans]
+30.3 +26.0 78 +46 +46 опасность
перегрева
998.2 998.0 +34.2
15 11.08 ЮВ 1 5000 м 3/3 540 м
[Sc diur, vesp]
+29.2 +27.0 88 +46 +46 опасность
перегрева
1000.4 1000.3
18 11.08 ЮВ 1 5000 м 3/3 540 м
[Cu Sc]
+28.7 +28.0 96 +47 +47 опасность
перегрева
1000.1 1000.0
21 11.08 штиль 0 5000 м 3/3 540 м
[Sc diur, vesp]
+28.2 +27.0 93 +44 +44 опасность
перегрева
999.6 999.4
00 12.08 штиль 0 5000 м 4/0
[Ac lent]
+27.8 +27.0 95 +44 +44 опасность
перегрева
998.8 998.6
03 12.08 ЮВ 1 5000 м 8/6 540 м
[Sc diur, vesp As trans]
+32.3 +27.0 74 +50 +55 опасность
перегрева
999.1 999.0 +27.4
06 12.08 ЮВ 1 6000 м {дождь} 6/5 540 м
[Sc diur, vesp As trans]
+32.9 +27.0 71 +51 +63 опасность
перегрева
998.9 998.7 0.1
09 12.08 ЮВ 1 5000 м в посл. час дождь 8/6 540 м
[Sc diur, vesp As trans]
+30.2 +28.0 88 +50 +54 опасность
перегрева
997.1 996.9
12 12.08 Ю 1 5000 м {дождь} 4/3 540 м
[Sc diur, vesp Ci sp]
+30.0 +26.0 79 +45 +45 опасность
перегрева
996.7 996.5 +33.2
15 12.08 штиль 0 5000 м ясно +28.7 +27.0 91 +45 +45 опасность
перегрева
998.2 998.0
18 12.08 штиль 0 5000 м ясно +28.2 +27.0 93 +44 +44 опасность
перегрева
998.8 998.7
21 12.08 штиль 0 5000 м 10/6 500 м
[Sc diur, vesp As op]
+28.0 +27.0 94 +44 +44 опасность
перегрева
998.5 998.3
00 13.08 штиль 0 4000 м {дождь} 10/6 500 м
[Sc diur, vesp As op]
+27.8 +27.8 100 +45 +45 опасность
перегрева
997.3 997.1 1
03 13.08 ЮВ 1 5000 м 6/5 540 м
[Sc diur, vesp As trans]
+31.2 +27.0 78 +49 +55 опасность
перегрева
998.4 998.3 +27.4
03 14.08 В 1 5000 м {дождь} 8/6 540 м
[Sc diur, vesp As trans]
+30.0 +27.0 84 +47 +51 опасность
перегрева
998.5 998.3 +27.2
06 14.08 ЮВ 1 6000 м {дождь} 6/5 540 м
[Sc diur, vesp As trans]
+32.6 +28.0 77 +53 +64 опасность
перегрева
997.7 997.5
09 14.08 ЮВ 2 6000 м {дождь} 6/5 540 м
[Sc diur, vesp As trans]
+32.5 +28.0 77 +53 +58 опасность
перегрева
995.8 995.6
12 14.08 Ю 1 5000 м {дождь} 8/5 540 м
[Sc diur, vesp Ci fib]
+30.0 +26.0 79 +45 +45 опасность
перегрева
995.2 995.0 +32.7 0.2
15 14.08 Ю 1 5000 м 9/6 500 м
[Sc diur, vesp Ac As]
+29.3 +26.0 82 +44 +44 опасность
перегрева
998.2 998.0
18 14.08 Ю 1 3000 м в посл. час дождь 10/6 500 м
[Sc diur, vesp As op]
+28.0 +27.0 94 +44 +44 опасность
перегрева
998.9 998.7 1
00 15.08 Ю 1 4000 м в посл. час дождь 9/8 240 м
[St Ac As]
+27.0 +27.0 100 +42 +42 опасность
перегрева
998.9 998.7

 

Местоположение метеостанции Patuakhali (Бангладеш): широта 22.33 долгота 90.33 высота над уровнем моря 3 м.

В архиве по умолчанию представлена погода в Patuakhali за последнюю неделю. Архивные данные за месяц целиком и за предыдущие месяцы, начиная с января 2011 года, Вы можете получить, выбрав интересующий диапазон дат из раскрывающегося списка и нажав кнопку "Ввод!".


*Определитесь, кто Вы:
робот инопланетянин человек

Внимание! Время в таблицах - всемирное. Для получения местного времени необходимо прибавить поправку, которая в Patuakhali равна 6.5 ч.

Смотрите также архив погоды в соседних городах и на ближайших метеорологических станциях:

Погода в Khepupara (Бангладеш) (40 км)
Погода в Barisal (Бангладеш) (47 км)
Погода в Bhola (Бангладеш) (51 км)
Погода в Hatia (Бангладеш) (80 км)
Погода в Mongla (Бангладеш) (90 км)
Погода в Gopalganj Sadar (Бангладеш) (92 км)
Погода в Madaripur (Бангладеш) (95 км)
Погода в Khulna (Бангладеш) (96 км)
Погода в Maijdicourt (Бангладеш) (99 км)
Погода в Chandpur (Бангладеш) (111 км)

Пояснения к столбцам:

Ветер - указаны скорость ветра в м/с - средняя за 10 мин, порывы в срок и между сроками (в фигурных скобках) и направление, откуда дует ветер: С - северный, СВ - северо-восточный, В - восточный, ЮВ - юго-восточный, Ю - южный, ЮЗ - юго-западный, З - западный, СЗ - северо-западный.
Видимость - горизонтальная дальность видимости в метрах или километрах. При видимости от 1 до 10 км при отсутствии осадков обычно наблюдается дымка, при ухудшении видимости до 1 км и менее - туман. В сухую погоду видимость может ухудшаться дымом, пылью или мглою.
Явления - указаны атмосферные явления, наблюдавшиеся в срок или в последний час перед сроком; фигурными скобками обозначены явления, наблюдавшиеся между сроками (за 1-3 часа до срока); квадратными скобками обозначены град или гололедные отложения с указанием их диаметра в мм.
Облачность - указаны через наклонную черту общая и нижняя облачность в баллах и высота нижней границы облаков в метрах; квадратными скобками обозначены формы облаков: Ci - перистые, Cs - перисто-слоистые, Cc - перисто-кучевые, Ac - высококучевые, As - высокослоистые, Sc - слоисто-кучевые, Ns - слоисто-дождевые, Cu - кучевые, Cb - кучево-дождевые. Подробнее классификацию облаков см. в Атласе облаков (PDF).
T - Температура воздуха - температура, измеренная на высоте 2 м над землей.
Td - Температура точки росы - температура, при понижении до которой содержащийся в воздухе водяной пар достигнет насыщения.
f - Относительная влажность воздуха - влажноcть воздуха, измеренная на высоте 2 м над землей.
Te - Эффективная температура - температура, которую ощущает одетый по сезону человек в тени. Характеристика душности погоды. При расчете учитывается влияние влажности воздуха и скорости ветра на теплоощущения человека.
Tes - Эффективная температура на солнце - температура, которую ощущает человек, с поправкой на солнечный нагрев. Характеристика знойности погоды. Зависит от высоты солнца над горизонтом, облачности и скорости ветра. Ночью, в пасмурную погоду, а также при ветре 12 м/с и более поправка равна нулю.
P - Атмосферное давление - приведенное к уровню моря атмосферное давление.
Po - Атмосферное давление - измеренное на уровне метеостанции атмосферное давление.
Tmin - Минимальная температура - минимум температуры воздуха на высоте 2 м над землей.
Tmax - Максимальная температура - максимум температуры воздуха на высоте 2 м над землей.
R - Количество осадков - Количество выпавших осадков за период времени, мм. При наведении курсора мыши на число - период времени, за который выпало указанное количество осадков.
R24 - Количество осадков - Количество выпавших осадков за 24 часа, мм.
S - Снежный покров - Высота снежного покрова, см. При наведении курсора мыши на число - состояние снежного покрова и степень покрытия местности в баллах.